{"data":{"norad_id":60098,"intl_designator":"2024-117H","name":"STARLINK-32026","alt_names":[],"object_type":"PAYLOAD","status":"ACTIVE","operator":null,"country":"US","launch_date":"2024-06-23","launch_site_code":"AFETR","launch_vehicle":null,"mission":null,"orbit_class":"UNKNOWN","rcs_meters":null,"size_class":null,"mass_kg":null,"dimensions":null,"purposes":["comms"],"wikipedia_slug":null,"has_3d_model":false,"image_url":null,"decayed_at":null,"tle_current":{"epoch":"2026-05-25T03:39:45.661248Z","epoch_age_seconds":55073,"freshness":"FRESH","line1":"1 60098U 24117H   26145.15261182  .00000568  00000+0  31312-4 0  9994","line2":"2 60098  53.1611  41.9338 0001047 109.9043 250.2070 15.30196071108590","mean_motion":15.30196071,"eccentricity":0.0001047,"inclination_deg":53.1611,"raan_deg":41.9338,"arg_perigee_deg":109.9043,"mean_anomaly_deg":250.207,"bstar":3.1312e-5,"rev_number":10859,"period_min":94.105587335546,"perigee_km":474.50925354028,"apogee_km":475.94434792016,"semimajor_km":6853.3638007302,"source":"CELESTRAK","updated_at":"2026-05-25T13:38:19.161215Z"}}}